Regional Weather Roundup
Issued by NWS Upton, NY

Current Version | Previous Version | Text Only | Print | Product List | Glossary On
Versions: 1 2 3 4 5 6 7 8 9 10 11 12 13 14 15 16 17 18 19 20 21 22 23 24 25 26 27 28 29 30 31 32 33 34 35 36 37 38 39 40 41 42 43 44 45 46 47 48 49 50
000
ASUS41 KOKX 251608
RWROKX

REGIONAL WEATHER ROUNDUP
NATIONAL WEATHER SERVICE NEW YORK NY
1200 PM EDT SAT MAR 25 2017

NOTE: "FAIR" INDICATES FEW OR NO CLOUDS BELOW 12,000 FEET WITH NO
SIGNIFICANT WEATHER AND/OR OBSTRUCTIONS TO VISIBILITY.

NYZ071-072-176-178-NJZ106-104-251700-
NEW YORK CITY METRO AREA

CITY           SKY/WX    TMP DP  RH WIND       PRES   REMARKS
Central Park   CLOUDY    58  38  47 CALM      30.19R
Wall St Helipt CLOUDY    55  39  54 CALM      30.18R
LaGuardia APRT CLOUDY    55  37  50 E9        30.17R
Kennedy INTL   CLOUDY    59  42  53 VRB6      30.17R
Breezy Point     N/A     54 N/A N/A W5          N/A
Newark/Liberty CLOUDY    60  40  47 CALM      30.16S
Teterboro      CLOUDY    57  40  52 N9        30.17R
$$

NYZ177-179-078>081-251700-
LONG ISLAND NEW YORK

CITY           SKY/WX    TMP DP  RH WIND       PRES   REMARKS
Jones Beach      N/A     55 N/A N/A W3          N/A
Matinecock PT    N/A     41 N/A N/A E12         N/A
Farmingdale    CLOUDY    61  40  45 N5        30.16R
MacArthur/ISP  PTSUNNY   61  40  45 N8        30.16S
Shirley        PTSUNNY   59  40  49 N8        30.16F
Westhampton    CLOUDY    56  36  47 N13       30.17F
East Hampton     N/A     49  35  58 NE12G17   30.17R
Montauk          N/A     48  39  71 NE9       30.21R
$$

NYZ052-065-067-251700-
HUDSON VALLEY

CITY           SKY/WX    TMP DP  RH WIND       PRES   REMARKS
White Plains   CLOUDY    53  40  61 N8        30.16R
Newburgh       CLOUDY    45  39  81 NE9       30.21S
Montgomery     CLOUDY    43  37  79 N12       30.20R
Poughkeepsie   CLOUDY    41  36  82 NW10      30.22R
Albany         LGT RAIN  37  31  78 N10       30.28R WCI  30
$$

NJZ001-105-106-008-010-013-015-019>022-104-251700-
NEW JERSEY

CITY           SKY/WX    TMP DP  RH WIND       PRES   REMARKS
Newark/Liberty CLOUDY    60  40  47 CALM      30.16S
Teterboro      CLOUDY    57  40  52 N9        30.17R
Caldwell       CLOUDY    57  40  52 NE7       30.18R
Somerville     CLOUDY    59  43  55 CALM      30.14F
Linden           N/A     60  39  47 CALM      30.17S
Sussex         LGT RAIN  46  38  73 NE7       30.18S
Andover          N/A     49  38  65 N3        30.16S
Trenton        CLOUDY    61  48  62 N3        30.16R
Millville      MOSUNNY   70  52  52 W5        30.16F
Atlantic City  MOSUNNY   74  49  41 SW8       30.15F
Wrightstown    PTSUNNY   67  49  52 W7        30.13S
Toms River     CLOUDY    70  51  51 W8        30.15S
Belmar         CLOUDY    62  48  60 W5        30.17R
$$

PAZ047>061-062-071-251700-
EASTERN PENNSYLVANIA

CITY           SKY/WX    TMP DP  RH WIND       PRES   REMARKS
Philadelphia   CLOUDY    67  48  50 W10       30.16F
Allentown      MOSUNNY   62  44  51 E3        30.15S
Scranton       CLOUDY    50  41  71 CALM      30.16R
$$

CTZ002-004>006-009-010-012-RIZ004-006-007-MAZ004-011-015-251700-
SOUTHERN NEW ENGLAND
 IN CT

CITY           SKY/WX    TMP DP  RH WIND       PRES   REMARKS
Bradley INTL   CLOUDY    44  36  73 N10       30.22S
Hartford       CLOUDY    46  36  68 N10       30.21F
Danbury        CLOUDY    50  39  66 VRB3      30.19R
Wtrbury/Oxford CLOUDY    45  34  65 NE9       30.20R
Bridgeport     PTSUNNY   51  40  65 N5        30.19S
Meriden        CLOUDY    49  35  58 N6        30.20S
New Haven      CLOUDY    52  38  58 N6        30.18F
Chester        NOT AVBL
Groton         CLOUDY    52  39  61 NE7       30.18F
Wilimantic     CLOUDY    49  38  65 NE7       30.21F

 IN RI

CITY           SKY/WX    TMP DP  RH WIND       PRES   REMARKS
Providence     CLOUDY    48  36  63 NE9       30.22S
Block Island   LGT RAIN  44  39  82 NE9       30.20S
Westerly       CLOUDY    51  39  63 NE9       30.19F
 IN MA

CITY           SKY/WX    TMP DP  RH WIND       PRES   REMARKS
Boston         CLOUDY    39  35  86 NE8       30.26R WCI  33
Worcester      CLOUDY    37  31  78 N8        30.21R WCI  31
Westfield      CLOUDY    42  36  79 N8        30.22F
Provincetown   CLOUDY    42  37  82 NE13      30.23R
Nantucket      CLOUDY    45  37  73 NE13      30.21R
$$

ANZ330-335-338-340-345-350-353-355-251700-
COASTAL MARINE OBSERVATIONS


STATION/POSITION TIME  SKY/WX   TEMP    WIND        PRES    VSBY  WAVE
                                AIR SEA DIR/SP/G                  HT/PER
                 (UTC)          (F)     (DEG/KT/KT) (MB)    (MI)  (FT/S)
NY HARB ENTRANCE 1550            49 42  130/  2/  4 1021.6          4/ 7
20 S FIRE ISLAND 1550            45 40  150/  4/  6 1021.1          4/ 8
GREAT SOUTH BAY  NOT AVBL
23 SSW MONTAUK P 1550            45 44              1022.7          6/ 8
15 E BARNEGAT LI 1530               42                N/A           5/ 8
HUDSON CANYON    1550            48 45  300/  8/  8 1022.4          6/ 8
KINGS POINT      1542            46 38              1021.4
EXECUTION ROCKS  NOT AVBL
CENTRAL LI SOUND 1530            41     160/  2/  4   N/A           0
EASTERN LI SOUND NOT AVBL
ROBBINS REEF     1542            56     360/  4/  5 1021.7
$$


>>>>>>>>>>>>>>>>>>>>>>>>>>>> KEY <<<<<<<<<<<<<<<<<<<<<<<<<<<
>                                                          <
>     SKY/WX - Sky Condition/Present Weather               <
>     TMP    - Temperature in Fahrenheit                   <
>     DP     - Dew Point in Fahrenheit                     <
>     RH     - Relative Humidity in Percent                <
>     WIND   - Direction (from) and Speed in MPH           <
>     PRES   - Mean Sea Level Pressure (inches of Hg)      <
>     WCI    - Wind Chill Index                            <
>     VSB    - VISIBILITY IN MILES                         <
>     HX     - HEAT INDEX                                  <
>     TC     - TEMPERATURE IN CELSIUS                      <
>     VRB    - VARIABLE WIND DIRECTION                     <
>                                                          <
>>>>>>>>>>>>>>>>>>>>>>>>>>>> KEY <<<<<<<<<<<<<<<<<<<<<<<<<<<



USA.gov is the U.S. government's official web portal to all federal, state and local government web resources and services.